Tracking 18840 objects as of 17-November-2017
HD Live streaming from Space Station
objects crossing your sky now

BREEZE-M DEB

Track BREEZE-M DEB now!


NORAD ID: 41548
Int'l Code: 2015-075J
Perigee: 33,664.9 km
Apogee: 36,862.8 km
Inclination: 1.9 °
Period: 1,409.1 minutes
Semi major axis: 41634 km
RCS: Unknown
Launch date: December 13, 2015
Source: Commonwealth of Independent States (former USSR) (CIS)
Launch site: TYURATAM MISSILE AND SPACE COMPLEX (TTMTR)

Note: This is SATELLITE DEBRIS
aabbcc
Your satellite tracking list
Your tracking list is empty




NASA's NSSDC Master Catalog

Two Line Element Set (TLE):
1 41548U 15075J   17320.53750640  .00000018  00000-0  00000+0 0  9991
2 41548   1.8695  72.0770 0384034  56.9403 306.3039  1.02192167  6802
Source of the keplerian elements: AFSPC